#timestamp,LO_Frequency,Hit,StdDev 
1702706415.2,286047002.4,N
1702706435.9,286047001.9,N
1702706455.7,286047002.0,N
1702706475.6,286047001.0,N
1702706495.4,286046999.9,N
1702706515.2,286047000.3,N
1702706535.1,286047002.0,N
1702706536.0,286047002.0,N
1702706555.8,286047011.9,Y
1702706575.7,286047001.5,P
1702706595.5,286047000.1,N
1702706615.3,286047000.5,N
1702706635.2,286047001.2,N
1702706655.0,286046998.2,Y
1702706655.9,286046998.2,P
1702706675.8,286046998.9,N
1702706695.6,286046998.8,N
1702706715.4,286046999.5,N
1702706735.3,286046999.0,N
1702706755.1,286046999.1,N
1702706775.8,286046999.4,N
1702706795.7,286046998.7,N
1702706815.5,286046999.0,N
1702706835.4,286046999.3,N
1702706855.2,286047001.2,N
1702706875.0,286047001.6,N
1702706876.0,286047001.6,N
1702706895.8,286047000.2,N
1702706915.6,286046998.7,N
1702706935.5,286046998.4,N
1702706955.3,286047001.0,N
1702706975.1,286046998.1,N
1702706995.9,286046998.7,N
1702707015.7,286046998.9,N
1702707035.6,286047001.2,N
1702707055.4,286047001.2,N
1702707075.2,286047000.7,N
1702707095.1,286046998.4,N
1702707096.0,286046998.4,N
1702707115.8,286046998.5,N
1702707135.6,286046998.1,N
1702707155.5,286046998.1,N
1702707175.3,286047000.7,N
1702707195.1,286046998.5,N
1702707215.9,286046999.6,N
1702707235.7,286046996.9,N
1702707255.6,286046996.8,N
1702707275.4,286046999.3,N
1702707295.2,286046998.7,N
1702707315.1,286046998.3,N
1702707316.0,286046998.3,N
1702707335.8,286046998.2,N
1702707355.7,286046998.4,N
1702707375.5,286046999.5,N
1702707395.3,286046999.4,N
1702707415.2,286046999.4,N
1702707435.9,286046998.9,N
1702707455.7,286046998.3,N
1702707475.6,286046998.7,N
1702707495.4,286046998.7,N
1702707515.2,286046998.8,N
1702707535.1,286046998.5,N
1702707536.0,286046998.5,N
1702707555.8,286046998.4,N
1702707575.7,286047000.9,N
1702707595.5,286047000.0,N
1702707615.3,286047000.4,N
1702707635.2,286046999.8,N
1702707655.0,286047002.3,N
1702707655.9,286047002.3,N
1702707675.8,286047000.1,N
1702707695.6,286047002.0,N
1702707715.4,286047004.0,N
1702707735.3,286046999.7,N
1702707755.1,286047000.1,N
1702707775.9,286047000.5,N
1702707795.7,286046999.8,N
1702707815.5,286047000.0,N
1702707835.4,286047000.9,N
1702707855.2,286047000.8,N
1702707875.0,286046998.3,N
1702707875.9,286046998.3,N
1702707895.8,286047000.4,N
1702707915.6,286047000.1,N
1702707935.5,286047001.0,N
1702707955.3,286047000.8,N
1702707975.1,286046998.3,N
1702707995.9,286046999.9,N
1702708015.7,286046999.9,N
1702708035.5,286046999.8,N
1702708055.4,286047002.8,N
1702708075.2,286047002.2,N
1702708095.0,286047002.0,N
1702708096.0,286047002.0,N
1702708115.8,286047002.6,N
1702708135.6,286047002.2,N
1702708155.5,286047000.0,N
1702708175.3,286047002.6,N
1702708195.1,286047002.6,N
1702708215.9,286046998.1,N
1702708235.7,286046998.5,N
1702708255.6,286046998.7,N
1702708275.4,286046998.1,N
1702708295.2,286046999.3,N
1702708315.1,286046999.1,N
1702708316.0,286046999.1,N
1702708335.8,286046999.2,N
1702708355.7,286047000.6,N
1702708375.5,286047000.8,N
1702708395.3,286047000.8,N
1702708415.2,286047000.1,N
1702708435.9,286046998.4,N
1702708455.7,286046999.5,N
1702708475.2,286046999.2,N
1702708495.0,286046999.3,N
1702708495.9,286046999.3,N
1702708515.8,286047001.0,N
1702708535.6,286047002.4,N
1702708555.5,286047001.9,N
1702708575.3,286047002.1,N
1702708595.1,286047002.8,N
1702708615.9,286047000.4,N
1702708635.7,286047000.6,N
1702708655.5,286047002.3,N
1702708675.4,286047000.9,N
1702708695.2,286047000.1,N
1702708715.1,286047000.5,N
1702708716.0,286047000.5,N
1702708735.8,286046998.2,N
1702708755.6,286046998.7,N
1702708775.5,286046998.4,N
1702708795.3,286046998.7,N
1702708815.1,286046998.4,N
1702708835.9,286046999.3,N
1702708855.7,286046996.5,N
1702708875.6,286046996.5,N
1702708895.4,286046999.2,N
1702708915.2,286046997.0,N
1702708935.1,286046997.4,N
1702708936.0,286046997.4,N
1702708955.8,286046995.6,N
1702708975.7,286046995.6,N
1702708995.5,286046996.0,N
1702709015.4,286046993.4,Y
1702709035.2,286046993.6,P
1702709055.0,286046993.5,N
1702709055.9,286046993.5,N
1702709075.8,286046996.2,N
1702709095.6,286046996.3,N
1702709115.4,286046993.7,Y
1702709135.3,286047001.0,P
1702709155.1,286046998.3,N
1702709175.9,286047000.5,N
1702709195.7,286046998.4,N
1702709215.5,286047001.1,N
1702709235.4,286046998.8,N
1702709255.2,286046997.0,N
1702709275.0,286046999.0,N
1702709276.0,286046999.0,N
1702709295.8,286047000.8,N
1702709315.6,286047001.1,N
1702709335.5,286047000.6,N
1702709355.3,286046998.2,N
1702709375.1,286046999.6,N
1702709395.9,286046999.4,N
1702709415.7,286046996.5,N
1702709435.5,286046999.6,N
1702709455.4,286046997.1,N
1702709475.2,286046997.8,N
1702709495.1,286046997.0,N
1702709496.0,286046997.0,N
1702709515.8,286046994.9,Y
1702709535.6,286046999.2,P
1702709555.5,286046999.0,P
1702709575.3,286046998.9,P
1702709595.2,286046996.8,Y
1702709615.9,286046998.7,P
1702709635.7,286046999.3,P
1702709655.6,286046999.3,N
1702709675.4,286046998.5,Y
1702709695.2,286046999.9,P
1702709715.1,286047002.2,P
1702709716.0,286047002.2,N
1702709735.8,286047002.0,N
1702709755.7,286047001.5,N
1702709775.5,286047002.5,N
1702709795.3,286047000.2,N
1702709815.2,286046999.8,N
1702709835.0,286047001.0,N
1702709835.9,286047001.0,N
1702709855.8,286046998.5,N
1702709875.6,286047001.2,N
1702709895.4,286047000.6,N
1702709915.3,286046998.5,N
1702709935.1,286047000.8,N
1702709955.9,286046998.6,N
1702709975.7,286047000.4,N
1702709995.5,286047000.1,N
